• In Belarus
  • List of Countries
  • For 7 days
  • Water Temperature
  • Satellite Maps
  • Weather Map
  • Weather Widgets
  • user-avatar
    Login

    Hourly Weather Patmos

    Today, 17 January, Wednesday

    Time Temperature Precipitation Wind Pressure Humidity
    00:00 +8°C° 0.1 mm 4 mps 759 mmHg 94%
    01:00 +8°C° 0.1 mm 4 mps 759 mmHg 94%
    02:00 +8°C° 0 mm 5 mps 758 mmHg 93%
    03:00 +8°C° 0.1 mm 5 mps 758 mmHg 94%
    04:00 +8°C° 0.1 mm 5 mps 758 mmHg 94%
    05:00 +8°C° 0.1 mm 5 mps 758 mmHg 94%
    06:00 +8°C° 0 mm 4 mps 758 mmHg 95%
    07:00 +8°C° 0 mm 4 mps 758 mmHg 95%
    08:00 +8°C° 0 mm 4 mps 757 mmHg 96%
    09:00 +11°C° 0 mm 4 mps 757 mmHg 90%
    10:00 +13°C° 0 mm 4 mps 757 mmHg 84%
    11:00 +14°C° 0 mm 4 mps 757 mmHg 78%
    12:00 +15°C° 0 mm 5 mps 756 mmHg 76%
    13:00 +15°C° 0 mm 5 mps 756 mmHg 74%
    14:00 +15°C° 0 mm 7 mps 755 mmHg 74%
    15:00 +15°C° 0 mm 7 mps 755 mmHg 78%
    16:00 +13°C° 0 mm 8 mps 754 mmHg 82%
    17:00 +12°C° 0 mm 8 mps 754 mmHg 86%
    18:00 +12°C° 0.1 mm 9 mps 753 mmHg 89%
    19:00 +12°C° 0.1 mm 10 mps 753 mmHg 91%
    20:00 +12°C° 0.1 mm 10 mps 752 mmHg 93%
    21:00 +12°C° 0.1 mm 11 mps 752 mmHg 92%
    22:00 +13°C° 0.1 mm 12 mps 752 mmHg 90%
    23:00 +13°C° 0.1 mm 13 mps 751 mmHg 89%

    Tomorrow, 18 January, Thursday

    Time Temperature Precipitation Wind Pressure Humidity
    00:00 +13°C° 0.1 mm 13 mps 751 mmHg 88%
    01:00 +13°C° 0.1 mm 13 mps 750 mmHg 87%
    02:00 +13°C° 0.1 mm 13 mps 750 mmHg 87%
    03:00 +13°C° 0.3 mm 13 mps 749 mmHg 86%
    04:00 +12°C° 0.3 mm 13 mps 749 mmHg 86%
    05:00 +12°C° 0.3 mm 13 mps 748 mmHg 85%
    06:00 +12°C° 0.3 mm 14 mps 749 mmHg 82%
    07:00 +10°C° 0.3 mm 15 mps 749 mmHg 80%
    08:00 +9°C° 0.3 mm 16 mps 749 mmHg 77%
    09:00 +9°C° 0.2 mm 16 mps 750 mmHg 75%
    10:00 +9°C° 0.2 mm 16 mps 751 mmHg 73%
    11:00 +9°C° 0.2 mm 16 mps 752 mmHg 71%
    12:00 +7°C° 0.5 mm 16 mps 753 mmHg 69%
    13:00 +6°C° 0.5 mm 16 mps 753 mmHg 66%
    14:00 +6°C° 0.5 mm 16 mps 754 mmHg 64%
    15:00 +5°C° 0.4 mm 16 mps 755 mmHg 64%
    16:00 +4°C° 0.4 mm 16 mps 756 mmHg 65%
    17:00 +4°C° 0.4 mm 16 mps 757 mmHg 66%
    18:00 +2°C° 0.1 mm 15 mps 757 mmHg 69%
    19:00 +1°C° 0.1 mm 14 mps 758 mmHg 71%
    20:00 0°C° 0.1 mm 14 mps 759 mmHg 73%
    21:00 0°C° 0 mm 13 mps 760 mmHg 71%
    22:00 0°C° 0 mm 12 mps 760 mmHg 70%
    23:00 -1°C° 0 mm 11 mps 761 mmHg 68%

    Day after tomorrow, 19 January, Friday

    Time Temperature Precipitation Wind Pressure Humidity
    00:00 0°C° 0 mm 10 mps 761 mmHg 66%
    01:00 0°C° 0 mm 10 mps 761 mmHg 63%
    02:00 0°C° 0 mm 9 mps 761 mmHg 60%
    03:00 0°C° 0 mm 8 mps 761 mmHg 60%
    04:00 0°C° 0 mm 7 mps 761 mmHg 59%
    05:00 0°C° 0 mm 7 mps 761 mmHg 58%
    06:00 +1°C° 0 mm 6 mps 762 mmHg 59%
    07:00 +1°C° 0 mm 5 mps 762 mmHg 59%
    08:00 +1°C° 0 mm 4 mps 762 mmHg 59%
    09:00 +4°C° 0 mm 4 mps 763 mmHg 53%
    10:00 +7°C° 0 mm 3 mps 763 mmHg 48%
    11:00 +9°C° 0 mm 3 mps 763 mmHg 43%
    12:00 +10°C° 0 mm 3 mps 762 mmHg 41%
    13:00 +11°C° 0 mm 3 mps 762 mmHg 39%
    14:00 +12°C° 0 mm 3 mps 762 mmHg 38%
    15:00 +11°C° 0 mm 4 mps 761 mmHg 43%
    16:00 +10°C° 0 mm 4 mps 761 mmHg 49%
    17:00 +8°C° 0 mm 5 mps 761 mmHg 54%
    18:00 +7°C° 0 mm 5 mps 762 mmHg 55%
    19:00 +6°C° 0 mm 5 mps 762 mmHg 56%
    20:00 +6°C° 0 mm 5 mps 762 mmHg 57%
    21:00 +5°C° 0 mm 5 mps 762 mmHg 56%
    22:00 +5°C° 0 mm 5 mps 762 mmHg 56%
    23:00 +5°C° 0 mm 5 mps 762 mmHg 55%

    20 January, Saturday

    Time Temperature Precipitation Wind Pressure Humidity
    00:00 +5°C° 0 mm 5 mps 762 mmHg 57%
    01:00 +5°C° 0 mm 5 mps 762 mmHg 59%
    02:00 +6°C° 0 mm 5 mps 762 mmHg 61%
    03:00 +5°C° 0 mm 6 mps 761 mmHg 66%
    04:00 +7°C° 0 mm 6 mps 761 mmHg 72%
    05:00 +8°C° 0 mm 6 mps 761 mmHg 78%
    06:00 +8°C° 0.1 mm 7 mps 761 mmHg 83%
    07:00 +9°C° 0.1 mm 7 mps 761 mmHg 88%
    08:00 +9°C° 0.1 mm 7 mps 761 mmHg 93%
    09:00 +10°C° 0.1 mm 8 mps 761 mmHg 93%
    10:00 +11°C° 0.1 mm 8 mps 761 mmHg 93%
    11:00 +11°C° 0.1 mm 8 mps 761 mmHg 94%
    12:00 +12°C° 0.1 mm 8 mps 761 mmHg 91%
    13:00 +12°C° 0.1 mm 9 mps 761 mmHg 88%
    14:00 +12°C° 0.1 mm 9 mps 760 mmHg 86%
    15:00 +12°C° 0.1 mm 8 mps 760 mmHg 87%
    16:00 +12°C° 0.1 mm 8 mps 760 mmHg 89%
    17:00 +11°C° 0.1 mm 8 mps 760 mmHg 90%
    18:00 +10°C° 0 mm 8 mps 760 mmHg 90%
    19:00 +10°C° 0 mm 8 mps 760 mmHg 90%
    20:00 +9°C° 0 mm 8 mps 760 mmHg 91%
    21:00 +9°C° 0 mm 8 mps 760 mmHg 91%
    22:00 +10°C° 0 mm 8 mps 760 mmHg 91%
    23:00 +10°C° 0 mm 8 mps 760 mmHg 92%

    21 January, Sunday

    Time Temperature Precipitation Wind Pressure Humidity
    00:00 +10°C° 0 mm 8 mps 760 mmHg 92%
    01:00 +11°C° 0 mm 8 mps 759 mmHg 92%
    02:00 +11°C° 0 mm 9 mps 759 mmHg 92%
    03:00 +11°C° 0 mm 8 mps 759 mmHg 91%
    04:00 +11°C° 0 mm 8 mps 759 mmHg 91%
    05:00 +11°C° 0 mm 8 mps 759 mmHg 91%
    06:00 +11°C° 0 mm 8 mps 758 mmHg 91%
    07:00 +11°C° 0 mm 8 mps 758 mmHg 91%
    08:00 +10°C° 0 mm 8 mps 758 mmHg 91%
    09:00 +12°C° 0.1 mm 8 mps 758 mmHg 85%
    10:00 +13°C° 0.1 mm 9 mps 758 mmHg 80%
    11:00 +16°C° 0.1 mm 9 mps 757 mmHg 74%
    12:00 +16°C° 0.1 mm 10 mps 756 mmHg 74%
    13:00 +16°C° 0.1 mm 10 mps 756 mmHg 74%
    14:00 +16°C° 0.1 mm 11 mps 755 mmHg 73%
    15:00 +14°C° 0.1 mm 11 mps 754 mmHg 78%
    16:00 +13°C° 0.1 mm 11 mps 753 mmHg 82%
    17:00 +12°C° 0.1 mm 11 mps 753 mmHg 87%
    18:00 +12°C° 0.7 mm 11 mps 752 mmHg 88%
    19:00 +12°C° 0.7 mm 12 mps 752 mmHg 90%
    20:00 +10°C° 0.7 mm 12 mps 752 mmHg 91%
    21:00 +10°C° 1.6 mm 12 mps 751 mmHg 92%
    22:00 +11°C° 1.6 mm 11 mps 751 mmHg 93%
    23:00 +11°C° 1.6 mm 11 mps 750 mmHg 94%

    22 January, Monday

    Time Temperature Precipitation Wind Pressure Humidity
    00:00 +10°C° 1.8 mm 9 mps 750 mmHg 95%
    01:00 +10°C° 1.8 mm 7 mps 749 mmHg 95%
    02:00 +10°C° 1.8 mm 5 mps 749 mmHg 95%
    03:00 +9°C° 0.4 mm 5 mps 748 mmHg 95%
    04:00 +9°C° 0.4 mm 5 mps 748 mmHg 95%
    05:00 +8°C° 0.4 mm 5 mps 748 mmHg 94%
    06:00 +8°C° 0.4 mm 6 mps 749 mmHg 93%
    07:00 +8°C° 0.4 mm 7 mps 749 mmHg 92%
    08:00 +9°C° 0.4 mm 8 mps 750 mmHg 91%
    09:00 +10°C° 0.1 mm 9 mps 751 mmHg 86%
    10:00 +11°C° 0.1 mm 10 mps 751 mmHg 82%
    11:00 +12°C° 0.1 mm 11 mps 752 mmHg 78%
    12:00 +10°C° 0 mm 12 mps 752 mmHg 79%
    13:00 +10°C° 0 mm 13 mps 752 mmHg 80%
    14:00 +9°C° 0 mm 14 mps 753 mmHg 81%
    15:00 +8°C° 0 mm 14 mps 753 mmHg 81%
    16:00 +8°C° 0 mm 15 mps 754 mmHg 81%
    17:00 +6°C° 0 mm 16 mps 755 mmHg 80%
    18:00 +5°C° 0 mm 16 mps 755 mmHg 81%
    19:00 +4°C° 0 mm 16 mps 756 mmHg 81%
    20:00 +2°C° 0 mm 16 mps 757 mmHg 82%
    21:00 +2°C° 0 mm 16 mps 757 mmHg 81%
    22:00 +2°C° 0 mm 16 mps 757 mmHg 81%
    23:00 +2°C° 0 mm 16 mps 758 mmHg 80%
    Show more